SL-14 DEB, 45350

Orbit data source: Space-Track

SL-14 DEB, 45350 is space debris in LEO originally from a launch on Thu, 15 Aug 1991 UTC launched from the Plesetsk Missile And Space Complex (PKMTR). Debris objects in space refer to the collection of defunct objects orbiting the Earth. Examples of debris include non-operational satellites, rocket bodies, and fragments generated from explosions, collisions, or faulty payload assembly.

Loading next visibility...
Identifier
45350, 1991-056CJ
Orbit
LEO
Country
Flag of CISCIS
Related business
Manufacturer
Unknown
Mission
Spacecraft
Bus & Motor
Unknown
Mass
Unknown
Launch date (UTC)
1991-08-15 (35 years ago)
Launch vehicle
Unknown
Launch site
Plesetsk Missile And Space Complex (PKMTR)
Object type
Payload
Rocket body
Debris
Shape & HBR
Unknown shape, 0.1 m
Radar Cross Section
Small (<0.1 m²)

Expand to show TLE details & history
Last TLE update: 1 week ago

TLE from 1 week ago
0 SL-14 DEB
1 45350U 91056CJ  26165.20276638  .00000450  00000-0  10461-2 0  9995
2 45350  82.5873 137.3035 0033173 320.8983  38.9746 13.22471096305420
Epoch: 2026-06-14T04:51Z
TLE epoch observation values (Epoch: 2026-06-14T04:51:59.015Z)
Latitude
0.00008°
Longitude
161.80073°
Altitude
1,158.662 km
Speed
7.283 km/s
True Right ascension
09h 09m 12s
True Declination
0° 00' 00"
Sunlit
Object was in daylight at epoch
Visualization orbit readout
Latitude
Unknown
Longitude
Unknown
Altitude
Unknown
Speed
Unknown
Apparent Right ascension
Unknown
Apparent Declination
Unknown
Sunlit
N/A
Visualization observer readout
Local Sidereal Time
00:51:17
Azimuth
Unknown
Elevation
Unknown
Doppler factor
Unknown
Orbital elements
Apogee altitude
1,197.579 km
Perigee altitude
1,147.484 km
Semi-major axis
7,550.669 km
Eccentricity
0.00332
Inclination
82.5873°
RAAN
137.3035°
Arg. of periapsis
320.8983°
True anomaly
39.21447°
Mean anomaly
38.9746°
Eccentric anomaly
39.09446°
Mean motion
3.308 °/min
Orbital period
108.83 mins
BSTAR
0.0010461
Loading maneuver chart data...
Computing Atmospheric mass density...
Loading historical data...
Loading historical data...
Loading historical data...
Loading historical data...
Loading historical data...
Loading historical data...
Loading historical data...

Documentation

Showing up to 5 results
|